[[{"header":{"parameterUnit":"m.s-1","parameterCategory":1,"la1":30.2991,"la2":30.254,"lo1":-89.0895,"lo2":-89.0444,"dy":0.0017,"dx":0.0017,"nx":28,"ny":28,"refTime":"2023-09-20T21:00:00:Z","depth":0,"parameterNumber":2,"parameterNumberName":"U-component_of_WINDS"},"data":[0,0,0,0,0,0,0,0,0,0,0,0,0,0,0,0,0,0,0,0,0,0,0,0,0,0,0,0,0,0,0,0,0,0,0,0,0,0,0,0,0,0,0,0,0,0,0,0,0,0,0,0,0,0,0,0,0,0,-3.2481,-3.2481,0,-3.244,-3.244,-3.2439,-3.2318,-3.2315,-3.2313,-3.231,-3.2271,-3.2272,-3.2274,0,0,0,0,0,0,0,0,0,0,0,0,0,-3.2459,-3.246,-3.2481,-3.2481,-3.248,-3.244,-3.244,-3.2439,-3.2319,-3.2315,-3.2312,-3.2309,-3.227,-3.2272,-3.2274,0,0,0,0,0,0,0,0,0,0,0,0,0,-3.2449,-3.2461,-3.2481,-3.2415,-3.2409,-3.244,-3.244,-3.2439,-3.2319,-3.2315,-3.2311,-3.2308,-3.227,-3.2272,-3.2274,-3.2367,0,0,-3.228,-3.2281,0,0,0,0,0,0,0,0,-3.245,-3.245,-3.2425,-3.242,-3.2413,-3.238,-3.2417,-3.2415,-3.232,-3.2353,-3.231,-3.2306,-3.2311,-3.2309,-3.231,-3.2365,-3.2363,-3.2281,-3.2282,-3.2283,-3.2283,0,0,0,0,0,0,0,-3.245,-3.2451,-3.2465,-3.2425,-3.2418,-3.2389,-3.2383,-3.2416,-3.2355,-3.235,-3.2341,-3.2338,-3.2306,-3.2308,-3.2308,-3.2363,-3.2281,-3.2282,-3.2284,-3.2285,-3.2494,-3.2498,0,0,0,0,0,0,-3.246,-3.2452,-3.2466,-3.2464,-3.2422,-3.2393,-3.2386,-3.2395,-3.2354,-3.2344,-3.2341,-3.2333,-3.2307,-3.2306,-3.2307,-3.2414,-3.2283,-3.2285,-3.2286,-3.249,-3.2495,-3.25,0,0,0,0,0,0,-3.246,-3.2463,-3.2468,-3.2456,-3.2454,-3.2397,-3.2408,-3.2396,-3.2398,-3.2347,-3.2336,-3.2355,-3.2304,-3.2303,-3.2353,-3.2411,-3.2286,-3.2288,-3.2485,-3.2491,-3.2497,-3.2629,0,0,0,0,0,0,-3.246,-3.2463,-3.2497,-3.2457,-3.2455,-3.2514,-3.2411,-3.2398,-3.2402,-3.2389,-3.2357,-3.2348,-3.23,-3.2351,-3.2355,-3.2411,-3.2289,-3.2479,-3.2488,-3.2495,-3.2619,-3.2639,-3.2656,0,0,0,0,0,-3.246,-3.2536,-3.2499,-3.2502,-3.2496,-3.2518,-3.2517,-3.246,-3.2407,-3.2441,-3.2409,-3.2349,-3.2404,-3.2357,-3.2361,-3.2419,-3.2475,-3.2485,-3.2495,-3.2611,-3.2635,-3.2655,0,0,0,0,0,0,-3.2584,-3.2529,-3.2488,-3.2553,-3.2541,-3.2497,-3.2538,-3.2487,-3.2491,-3.2479,-3.241,-3.2404,-3.2463,-3.2446,-3.2394,-3.2508,-3.243,-3.2441,-3.2517,-3.2539,-3.2557,-3.2561,-3.2291,0,0,0,0,0,-3.2618,-3.264,-3.2591,-3.2654,-3.265,-3.2596,-3.2603,-3.2561,-3.2546,-3.254,-3.2511,-3.25,-3.2515,-3.2526,-3.2537,-3.2616,-3.2608,-3.2658,-3.2677,-3.2692,-3.2702,-3.2745,-3.2767,-3.2531,-3.2531,-3.2531,0,0,-3.2691,-3.2664,-3.2681,-3.2678,-3.2663,-3.2689,-3.2592,-3.2622,-3.2641,-3.2545,-3.259,-3.2569,-3.2552,-3.2618,-3.2645,-3.2605,-3.2766,-3.2704,-3.2717,-3.2719,-3.2757,-3.278,-3.28,-3.2538,-3.2537,-3.2536,0,0,-3.2835,-3.2816,-3.2867,-3.2855,-3.2834,-3.2798,-3.2811,-3.2775,-3.2758,-3.2802,-3.2731,-3.2753,-3.2779,-3.2771,-3.277,-3.2915,-3.286,-3.292,-3.3016,-3.3059,-3.3078,-3.3094,-3.3147,-3.3166,-3.2931,-3.2931,-3.2931,0,-3.2928,-3.2961,-3.2899,-3.2935,-3.2936,-3.2851,-3.2903,-3.2894,-3.2879,-3.2883,-3.2838,-3.2871,-3.2853,-3.2916,-3.2952,-3.2954,-3.2967,-3.2923,-3.308,-3.3095,-3.3109,-3.3159,-3.3179,-3.2938,-3.2938,-3.2937,-3.2936,0,-3.3077,-3.3102,-3.3146,-3.3133,-3.3139,-3.3183,-3.3129,-3.3144,-3.3102,-3.3071,-3.3119,-3.3095,-3.31,-3.3112,-3.3071,-3.317,-3.3146,-3.3092,-3.3012,-3.3141,-3.3186,-3.3205,-3.2949,-3.2946,-3.2944,-3.2942,0,0,-3.3296,-3.3251,-3.3268,-3.3262,-3.3235,-3.3253,-3.3295,-3.3299,-3.3314,-3.3307,-3.334,-3.3366,-3.3316,-3.3315,-3.3273,-3.3311,-3.3429,-3.3251,-3.325,-3.3286,-3.3539,-3.358,-3.3603,-3.3393,-3.3396,-3.3399,-3.3541,0,-3.3434,-3.35,-3.3447,-3.3523,-3.3547,-3.3467,-3.3503,-3.3491,-3.3465,-3.3482,-3.3452,-3.3472,-3.3404,-3.3403,-3.3437,-3.3407,-3.3479,-3.3396,-3.3425,-3.3426,-3.3432,-3.3627,-3.367,-3.3805,-3.3558,-3.3561,-3.3563,0,-3.3602,-3.3604,-3.3683,-3.3652,-3.366,-3.3693,-3.3695,-3.3712,-3.3698,-3.3676,-3.3677,-3.3625,-3.3665,-3.3587,-3.3642,-3.3587,-3.3596,-3.3584,-3.3588,-3.3588,-3.3503,-3.3634,-3.3847,-3.3867,-3.359,-3.3588,-3.3586,0,-3.3756,-3.3778,-3.3828,-3.3825,-3.3791,-3.3816,-3.3804,-3.3785,-3.3793,-3.3795,-3.3799,-3.3806,-3.381,-3.3817,-3.377,-3.3717,-3.3832,-3.375,-3.3816,-3.3817,-3.3843,-3.3842,-3.4061,-3.3848,-3.3848,-3.3848,-3.3847,0,-3.3915,-3.3967,-3.3897,-3.3928,-3.3984,-3.3924,-3.3982,-3.3961,-3.3946,-3.3973,-3.3905,-3.3932,-3.3867,-3.3888,-3.3851,-3.3903,-3.3905,-3.389,-3.388,-3.3896,-3.3899,-3.3901,-3.3891,-3.3853,-3.3852,-3.3851,-3.385,0,-3.4096,-3.4051,-3.4101,-3.4065,-3.4057,-3.4101,-3.407,-3.4099,-3.4068,-3.4103,-3.4108,-3.4061,-3.4082,-3.4035,-3.405,-3.4026,-3.41,-3.4074,-3.4105,-3.4097,-3.4167,-3.4161,-3.4395,-3.4424,-3.4193,-3.4195,-3.4197,0,-3.4201,-3.4239,-3.4207,-3.422,-3.4211,-3.4233,-3.424,-3.4183,-3.4194,-3.4182,-3.4213,-3.4228,-3.4237,-3.4276,-3.4243,-3.4255,-3.423,-3.4311,-3.4231,-3.4247,-3.4232,-3.4231,-3.4235,-3.4328,-3.4331,-3.4333,-3.4335,0,-3.4391,-3.4368,-3.438,-3.4387,-3.4398,-3.44,-3.4397,-3.4412,-3.4351,-3.4367,-3.4388,-3.4396,-3.4411,-3.4429,-3.4433,-3.4421,-3.4369,-3.436,-3.4376,-3.4394,-3.441,-3.4403,-3.4151,-3.4355,-3.4353,-3.4352,-3.435,-3.435,-3.4537,-3.4569,-3.4552,-3.4569,-3.4562,-3.4561,-3.4587,-3.456,-3.4576,-3.4584,-3.455,-3.4579,-3.4567,-3.4567,-3.4561,-3.4584,-3.4548,-3.4571,-3.4577,-3.4583,-3.4595,-3.4407,-3.4585,-3.4584,-3.4584,-3.4583,-3.4583,0,-3.4726,-3.4712,-3.4728,-3.4727,-3.4742,-3.4691,-3.4686,-3.4702,-3.4729,-3.4721,-3.4732,-3.4758,-3.4775,-3.4745,-3.4757,-3.4782,-3.4758,-3.4787,-3.4785,-3.4783,-3.4627,-3.4612,-3.4806,-3.4806,-3.4806,-3.4806,-3.4806,-3.4806,-3.4825,-3.4875,-3.4851,-3.4898,-3.4883,-3.4911,-3.4913,-3.4913,-3.4907,-3.4938,-3.4952,-3.4932,-3.4917,-3.4928,-3.4942,-3.4933,-3.4941,-3.4978,-3.4961,-3.4816,-3.4794,-3.4773,-3.4759,-3.498,-3.4981,-3.5116,-3.5117,-3.5118]},{"header":{"parameterUnit":"m.s-1","parameterCategory":1,"la1":30.2991,"la2":30.254,"lo1":-89.0895,"lo2":-89.0444,"dy":0.0017,"dx":0.0017,"nx":28,"ny":28,"refTime":"2023-09-20T21:00:00:Z","depth":0,"parameterNumber":3,"parameterNumberName":"V-component_of_WINDS"},"data":[0,0,0,0,0,0,0,0,0,0,0,0,0,0,0,0,0,0,0,0,0,0,0,0,0,0,0,0,0,0,0,0,0,0,0,0,0,0,0,0,0,0,0,0,0,0,0,0,0,0,0,0,0,0,0,0,0,0,2.1276,2.1275,0,2.1188,2.1187,2.1186,2.1187,2.1188,2.119,2.1191,2.1091,2.1088,2.1084,0,0,0,0,0,0,0,0,0,0,0,0,0,2.1439,2.1436,2.1276,2.1275,2.1274,2.1188,2.1187,2.1185,2.1187,2.1188,2.119,2.1191,2.1093,2.1088,2.1084,0,0,0,0,0,0,0,0,0,0,0,0,0,2.1361,2.1435,2.1276,2.1264,2.1262,2.1188,2.1186,2.1185,2.1187,2.1188,2.119,2.1192,2.1094,2.1089,2.1083,2.1012,0,0,2.1066,2.1063,0,0,0,0,0,0,0,0,2.1365,2.1355,2.1267,2.1265,2.1263,2.12,2.1208,2.1127,2.1186,2.1215,2.1191,2.1193,2.1126,2.1118,2.1097,2.1007,2.1003,2.1065,2.1062,2.1059,2.1058,0,0,0,0,0,0,0,2.137,2.1358,2.1241,2.1266,2.1263,2.1261,2.1252,2.1192,2.1161,2.1213,2.1213,2.1203,2.1125,2.1102,2.1094,2.1001,2.1066,2.106,2.1057,2.1055,2.0849,2.0847,0,0,0,0,0,0,2.1379,2.1363,2.1243,2.1238,2.132,2.1257,2.1247,2.1218,2.1162,2.1155,2.1201,2.1203,2.1111,2.1101,2.1091,2.1003,2.106,2.1054,2.1051,2.0851,2.0848,2.0846,0,0,0,0,0,0,2.1383,2.1369,2.1247,2.13,2.1285,2.1252,2.122,2.1216,2.1193,2.1153,2.1147,2.1184,2.1112,2.1099,2.1032,2.0999,2.1052,2.1047,2.0853,2.085,2.0847,2.0826,0,0,0,0,0,0,2.1388,2.137,2.1344,2.13,2.1282,2.1191,2.1218,2.1213,2.1184,2.1186,2.1136,2.1129,2.1112,2.1041,2.1026,2.0992,2.1042,2.0856,2.0852,2.0848,2.0829,2.0823,2.0817,0,0,0,0,0,2.1393,2.134,2.1343,2.1328,2.1249,2.119,2.1179,2.1164,2.1182,2.1154,2.1129,2.113,2.1006,2.1034,2.1018,2.0981,2.0858,2.0853,2.0848,2.0832,2.0824,2.0817,0,0,0,0,0,0,2.1377,2.1334,2.1336,2.1267,2.1233,2.119,2.1154,2.1155,2.1112,2.1115,2.1096,2.1084,2.1017,2.0993,2.1025,2.091,2.0934,2.0926,2.0927,2.0919,2.0913,2.0918,2.1037,0,0,0,0,0,2.1366,2.1324,2.1287,2.123,2.1213,2.1187,2.116,2.1152,2.1114,2.1098,2.1068,2.1028,2.0981,2.0949,2.0903,2.0828,2.0815,2.0795,2.0789,2.0784,2.0775,2.0733,2.0723,2.083,2.0831,2.0831,0,0,2.1341,2.1312,2.1286,2.1226,2.1198,2.1152,2.1174,2.1125,2.109,2.109,2.1025,2.1002,2.0957,2.0885,2.0852,2.0863,2.0744,2.0778,2.0774,2.0768,2.0727,2.0717,2.0708,2.0827,2.0828,2.0828,0,0,2.1272,2.1248,2.1197,2.1169,2.1128,2.1112,2.11,2.1058,2.1043,2.098,2.0979,2.0936,2.0854,2.0822,2.0795,2.0718,2.0716,2.0703,2.0668,2.0627,2.0618,2.061,2.058,2.057,2.0696,2.0696,2.0696,0,2.1245,2.1179,2.117,2.112,2.1093,2.1096,2.1043,2.1016,2.096,2.094,2.0955,2.0853,2.0823,2.0743,2.0725,2.0704,2.0687,2.0706,2.0621,2.0613,2.0606,2.0577,2.0566,2.0694,2.0695,2.0695,2.0695,0,2.1147,2.1101,2.1065,2.1015,2.0984,2.0933,2.0914,2.0883,2.0879,2.0861,2.0795,2.076,2.0706,2.0688,2.0681,2.0607,2.0615,2.0626,2.0649,2.0594,2.0566,2.0555,2.0692,2.0693,2.0693,2.0694,0,0,2.1061,2.101,2.0996,2.0973,2.093,2.0892,2.0842,2.0793,2.0766,2.0729,2.0684,2.0617,2.0627,2.0596,2.0587,2.0551,2.0489,2.0565,2.0564,2.055,2.0403,2.0393,2.0381,2.0491,2.0489,2.0487,2.0406,0,2.0985,2.0897,2.0889,2.0809,2.0765,2.0769,2.0725,2.0692,2.0674,2.0633,2.0613,2.0564,2.0583,2.0564,2.0529,2.0504,2.0459,2.0511,2.0445,2.0443,2.0453,2.0366,2.0355,2.028,2.0395,2.0394,2.0392,0,2.0884,2.0847,2.0764,2.0728,2.0709,2.0669,2.0624,2.0586,2.0549,2.0538,2.0506,2.0502,2.0447,2.0477,2.04,2.0435,2.0409,2.0393,2.0389,2.0379,2.0411,2.0351,2.0256,2.0244,2.0376,2.0377,2.0378,0,2.0826,2.0756,2.0697,2.0678,2.0634,2.0606,2.0586,2.0552,2.0523,2.0483,2.0464,2.0418,2.0391,2.0354,2.0337,2.0361,2.0261,2.0289,2.0247,2.0248,2.0222,2.0223,2.0119,2.0212,2.0212,2.0212,2.0212,0,2.074,2.0688,2.067,2.0633,2.0575,2.0566,2.0508,2.0489,2.0459,2.0417,2.0417,2.0377,2.0359,2.0316,2.0302,2.0239,2.0228,2.0216,2.0212,2.0214,2.0215,2.0193,2.0196,2.0209,2.021,2.021,2.0211,0,2.0663,2.065,2.0585,2.0551,2.0542,2.05,2.0469,2.0433,2.0418,2.0365,2.0352,2.0327,2.0276,2.0257,2.0194,2.0185,2.0112,2.0114,2.0124,2.0123,2.0081,2.0084,1.9955,1.9937,2.0046,2.0045,2.0044,0,2.0607,2.0568,2.0531,2.0504,2.0485,2.0442,2.0414,2.0404,2.0374,2.033,2.0298,2.0249,2.0208,2.0127,2.0101,2.0053,2.0052,2.0011,2.0044,2.0047,2.0047,2.0049,2.0043,2.0003,2.0001,2.0001,2.0,0,2.0508,2.0504,2.0465,2.0424,2.0392,2.0358,2.0326,2.0303,2.0288,2.0255,2.0205,2.0174,2.0112,2.0062,2.0013,1.999,1.9991,1.9991,1.9978,1.9977,1.9983,1.9976,2.0103,1.9992,1.9993,1.9993,1.9994,1.9994,2.0437,2.0403,2.0372,2.0328,2.0304,2.0274,2.0238,2.0221,2.018,2.013,2.0127,2.0073,2.0037,1.9973,1.9948,1.9904,1.9914,1.9896,1.9891,1.9886,1.9882,1.9995,1.9895,1.9895,1.9895,1.9896,1.9896,0,2.0336,2.0318,2.0278,2.0234,2.02,2.021,2.0175,2.0144,2.0097,2.0066,2.0027,1.997,1.9922,1.9894,1.9846,1.9816,1.9815,1.9803,1.9802,1.9797,1.9876,1.9891,1.9804,1.9804,1.9804,1.9804,1.9804,1.9804,2.0279,2.022,2.0213,2.0142,2.0123,2.0072,2.0051,2.0023,1.9998,1.9935,1.9896,1.988,1.985,1.98,1.9755,1.9749,1.9729,1.9715,1.9709,1.9782,1.9791,1.98,1.9813,1.9712,1.9712,1.9632,1.9632,1.9631]}]]